Location: Unspecified
(48.2082°N, 0.0000°E)
Time: 21:53:41
(UTC+00:00)

Altair - Pass Details

Date: 25 June 2019
Orbit: 1501 x 1683 km, 47.2° (Epoch: 19 July)

Event Time Altitude Azimuth Distance (km) Brightness Sun altitude
Rises 19:13:40 0° 232° (SW) 4,678 10.4 6.3°
Reaches altitude 10° 19:16:42 10° 229° (SW) 3,717 9.8 5.8°
Maximum altitude 19:25:54 61° 152° (SSE) 1,770 7.7 4.5°
Drops below altitude 10° 19:35:30 10° 76° (ENE) 3,868 9.2 3.1°
Sets 19:38:43 0° 73° (ENE) 4,878 9.7 2.7°
